Alpena, MI

4:02 PM EDT on August 23, 2017 (GMT -0400)
Alpena County Regional

Weather History for KAPN - December, 2013

Change the Weather History Date:

Sunday, December 8, 2013

  Actual Average Record
Temperature  
Mean Temperature 17 °F 28 °F  
Max Temperature 26 °F 34 °F 57 °F (1946)
Min Temperature 8 °F 21 °F -8 °F (1976)
Degree Days  
Heating Degree Days 48 38  
Month to date heating degree days 314 290  
Since 1 July heating degree days 2182 2113  
Moisture  
Dew Point 12 °F    
Average Humidity 77    
Maximum Humidity 92    
Minimum Humidity 62    
Precipitation  
Precipitation 0.07 in 0.06 in 0.78 in (1924)
Month to date precipitation 0.66 0.50  
Year to date precipitation 30.13 26.91  
Snow  
Snow 1.30 in 0.50 in 7.00 in (1977)
Month to date snowfall 3.7 4.5  
Since 1 July snowfall 6.3 12.6  
Snow Depth 1.00 in    
Sea Level Pressure  
Sea Level Pressure 30.35 in    
Wind  
Wind Speed 5 mph (SSE)    
Max Wind Speed 15 mph    
Max Gust Speed 19 mph    
Visibility 7 miles    
Events Snow    
T = Trace of Precipitation, MM = Missing Value Source: NWS Daily Summary

Daily Weather History Graph

Daily Weather History Graph

Search for Another Location

Airport or City:

Trip Planner

Search our weather history database for the weather conditions in past years. The results will help you decide how hot, cold, wet, or windy it might be!

Date:

Astronomy

Dec. 08, 2013 Rise Set
Actual Time 8:00 AM EST 4:52 PM EST
Civil Twilight 7:26 AM EST 5:25 PM EST
Nautical Twilight 6:49 AM EST 6:02 PM EST
Astronomical Twilight 6:13 AM EST 6:38 PM EST
Moon 12:07 PM EST (12/8) 11:54 PM EST (12/8)
Length of Visible Light 9h 59m
Length of Day
8h 52m
Waxing Crescent, 40% of the Moon is Illuminated
Dec 8
Waxing Crescent
Dec 9
First Quarter
Dec 17
Full
Dec 25
Last Quarter
Jan 1
New

Hourly Weather History & Observations

Time (EST) Temp. Windchill Dew Point Humidity Pressure Visibility Wind Dir Wind Speed Gust Speed Precip Events Conditions
12:54 AM 12.0 °F 0.5 °F 3.9 °F 70% 30.55 in 10.0 mi WSW 8.1 mph - N/A   Clear
1:54 AM 12.0 °F 0.5 °F 3.9 °F 70% 30.54 in 10.0 mi SW 8.1 mph - N/A   Clear
2:54 AM 10.9 °F 1.4 °F 3.9 °F 73% 30.52 in 10.0 mi SW 5.8 mph - N/A   Clear
3:54 AM 10.0 °F 0.4 °F 5.0 °F 80% 30.54 in 10.0 mi SW 5.8 mph - N/A   Clear
4:54 AM 10.9 °F -0.8 °F 5.0 °F 77% 30.55 in 10.0 mi SW 8.1 mph - N/A   Mostly Cloudy
5:54 AM 10.9 °F 1.4 °F 5.0 °F 77% 30.56 in 10.0 mi SSW 5.8 mph - N/A   Mostly Cloudy
6:54 AM 10.9 °F 0.2 °F 5.0 °F 77% 30.57 in 10.0 mi SW 6.9 mph - N/A   Partly Cloudy
7:54 AM 9.0 °F - 5.0 °F 84% 30.55 in 10.0 mi Calm Calm - N/A   Clear
8:54 AM 10.9 °F 4.7 °F 7.0 °F 84% 30.54 in 10.0 mi South 3.5 mph - N/A   Overcast
9:54 AM 14.0 °F - 7.0 °F 74% 30.54 in 10.0 mi Calm Calm - N/A   Overcast
10:54 AM 15.1 °F 9.4 °F 8.1 °F 74% 30.54 in 10.0 mi WSW 3.5 mph - N/A   Mostly Cloudy
11:54 AM 17.1 °F - 9.0 °F 71% 30.51 in 10.0 mi Calm Calm - N/A   Overcast
12:54 PM 18.0 °F 12.7 °F 8.1 °F 65% 30.48 in 10.0 mi SE 3.5 mph - N/A   Overcast
1:54 PM 19.0 °F 12.3 °F 9.0 °F 65% 30.45 in 10.0 mi South 4.6 mph - N/A   Overcast
2:54 PM 19.0 °F 11.1 °F 10.0 °F 68% 30.44 in 3.0 mi SE 5.8 mph - 0.00 in Snow Light Snow
3:54 PM 19.0 °F 12.3 °F 10.9 °F 71% 30.40 in 10.0 mi ESE 4.6 mph - 0.00 in   Overcast
4:54 PM 18.0 °F 11.1 °F 12.9 °F 81% 30.37 in 10.0 mi East 4.6 mph - N/A   Overcast
5:54 PM 18.0 °F - 12.9 °F 81% 30.35 in 10.0 mi Calm Calm - N/A   Overcast
6:54 PM 18.0 °F 11.1 °F 14.0 °F 84% 30.30 in 10.0 mi NNE 4.6 mph - N/A   Overcast
7:49 PM 19.0 °F 13.9 °F 16.0 °F 88% 30.26 in 1.8 mi NNE 3.5 mph - 0.00 in Snow Light Snow
7:55 PM 19.0 °F 13.9 °F 16.0 °F 88% 30.21 in 2.0 mi NNE 3.5 mph - 0.00 in Snow Light Snow
8:12 PM 19.9 °F - 18.0 °F 92% 30.20 in 4.0 mi Calm Calm - 0.00 in Snow Light Snow
8:30 PM 21.0 °F - 18.0 °F 88% 30.19 in 1.8 mi Calm Calm - 0.00 in Snow Light Snow
8:54 PM 21.0 °F 16.2 °F 19.0 °F 92% 30.23 in 1.8 mi NNW 3.5 mph - 0.01 in Snow Light Snow
9:25 PM 23.0 °F 14.7 °F 19.9 °F 88% 30.16 in 3.0 mi ESE 6.9 mph - 0.02 in Snow Light Snow
9:36 PM 24.1 °F 13.1 °F 19.9 °F 84% 30.15 in 2.0 mi SE 11.5 mph - 0.02 in Snow Light Snow
9:46 PM 24.1 °F 14.4 °F 19.9 °F 84% 30.14 in 3.0 mi SE 9.2 mph - 0.02 in Snow Light Snow
9:54 PM 25.0 °F 14.2 °F 19.0 °F 78% 30.17 in 5.0 mi SE 11.5 mph - 0.02 in Snow Light Snow
10:41 PM 25.0 °F 16.3 °F 19.9 °F 81% 30.10 in 2.5 mi ESE 8.1 mph - 0.01 in Snow Light Snow
10:45 PM 25.0 °F 15.5 °F 21.0 °F 85% 30.10 in 3.0 mi ESE 9.2 mph - 0.01 in Snow Light Snow
10:54 PM 26.1 °F 16.8 °F 21.0 °F 81% 30.13 in 3.0 mi ESE 9.2 mph - 0.01 in Snow Light Snow
11:24 PM 26.1 °F 17.6 °F 21.0 °F 81% 30.07 in 2.5 mi SE 8.1 mph - 0.00 in Snow Light Snow
11:31 PM 26.1 °F 16.8 °F 21.9 °F 84% 30.06 in 2.5 mi SE 9.2 mph - 0.00 in Snow Light Snow
11:46 PM 26.1 °F 17.6 °F 21.0 °F 81% 30.05 in 4.0 mi SE 8.1 mph - 0.01 in Snow Light Snow
11:54 PM 26.1 °F 14.0 °F 21.0 °F 81% 30.07 in 3.0 mi SE 15.0 mph 18.4 mph 0.01 in Snow Light Snow